{"data":{"norad_id":48557,"intl_designator":"2021-041E","name":"STARLINK-2155","alt_names":[],"object_type":"PAYLOAD","status":"ACTIVE","operator":null,"country":"US","launch_date":"2021-05-15","launch_site_code":"AFETR","launch_vehicle":null,"mission":null,"orbit_class":"UNKNOWN","rcs_meters":null,"size_class":null,"mass_kg":null,"dimensions":null,"purposes":["comms"],"wikipedia_slug":null,"has_3d_model":false,"image_url":null,"decayed_at":null,"tle_current":{"epoch":"2026-09-19T20:09:13.705344Z","epoch_age_seconds":94372,"freshness":"FRESH","line1":"1 48557U 21041E   26262.83974196 -.00000598  00000+0 -75076-5 0  9995","line2":"2 48557  53.1581 303.3144 0001211  85.5844 274.5295 15.31696877295026","mean_motion":15.31696877,"eccentricity":0.0001211,"inclination_deg":53.1581,"raan_deg":303.3144,"arg_perigee_deg":85.5844,"mean_anomaly_deg":274.5295,"bstar":-7.5076e-6,"rev_number":29502,"period_min":94.013379646004,"perigee_km":469.91990461045,"apogee_km":471.57870487346,"semimajor_km":6848.886304742,"source":"CELESTRAK","updated_at":"2026-09-20T09:00:39.133095Z"}}}